Pagina principale
METAR-TAF:

METAR-TAF

Aeroporti :

Castrignano del Capo, Italia

Santa Maria di Leuca

latitudine: 39-49N, longitudine: 018-21E, altezza: 104 m

Osservazione

Il bollettino è stato emesso 1 ora e 16 minuti fa, alle 10:55 UTC
Vento 7 kt da ovest
Temperature 15°C
Umidità 63%
Pressione 1012 hPa
Visibilità 10 km o più
Poco nuvoloso ad un'altezza di 2500 ft

METAR: LIBY 191055Z 26007KT 9999 FEW025 15/08 Q1012 RMK SCT QUK 2 QUL 1 W VIS MAR 15 KM VIS MIN 9999

Ora: 13:11 (12:11 UTC)


TAF: mancante

Osservazioni e previsioni meteorologiche di più di 4000 aeroporti (messaggi METAR e TAF).

Le stazioni disponibili sono rappresentate dai dischi gialli e rossi sulla carta.

Puntare il mouse per vedere il nome della stazione.

Clicca sopra per visualizzare le osservazioni e previsioni meteorologiche.

Per cambiare la mappa : fare clic sui pulsanti verdi con una croce nera per ingrandire, il pulsante verde con un trattino per diminuire, o sulla freccia verde per le mappe adiacenti.


METAR-TAF: